Home > Weather > Tabriz > Past weeks

Flag for Iran Weather for the Past 2 Weeks in Tabriz, Iran

Now
55 °F

Partly cloudy.


Feels Like: 54 °F
Forecast: 48 / 69 °F
Wind: 7 mph from East

Location: Tabriz Airport

Current Time: May 2, 2016 at 8:28:18 AM

Latest Report: May 2, 2016 at 7:30 AM


Visibility: N/A

Pressure: 30.07 "Hg (25.48 "Hg at 1388m altitude)

Humidity: 63%

Dew Point: 43 °F

Location of TabrizLocation

Historic Weather in Tabriz — Graph

°F

Tabriz Temperature Yesterday

Maximum temperature yesterday: 72 °F (at 3:30 PM)
Minimum temperature yesterday: 48 °F (at 4:00 AM)
Average temperature yesterday: 60 °F

High & Low Weather Summary for the Past Weeks

 TemperatureHumidityPressure
High81 °F (Apr 26, 3:30 PM)94% (Apr 28, 12:00 PM)30.27 "Hg (Apr 28, 12:00 PM)
Low37 °F (Apr 18, 2:30 AM)13% (Apr 24, 5:00 PM)29.83 "Hg (Apr 25, 4:30 PM)
Average58 °F49%30.05 "Hg
* Reported Apr 17 6:30 AM — May 2 6:30 AM, Tabriz, Weather by CustomWeather, © 2016

Note: Actual official high and low records may vary slightly from our data, if they occured in-between our weather recording intervals... More about our weather records

Advertising

Tabriz Weather History for the Previous 24 Hours

Scroll right to see more
 ConditionsComfort  
Time TempWeatherWind HumidityBarometerVisibility
6:30 AM
Mon, May 2
54 °FMostly cloudy.5 mph72%30.07 "HgN/A
6:00 AM54 °FPassing clouds.5 mph72%30.07 "HgN/A
5:30 AM54 °FPassing clouds.5 mph77%30.04 "HgN/A
5:00 AM52 °FPassing clouds.5 mph82%30.07 "HgN/A
4:30 AM54 °FPassing clouds.5 mph77%30.07 "HgN/A
4:00 AM52 °FPassing clouds.5 mph77%30.07 "HgN/A
3:30 AM54 °FPassing clouds.5 mph72%30.07 "HgN/A
3:00 AM54 °FPassing clouds.12 mph72%30.07 "HgN/A
2:30 AM54 °FPassing clouds.12 mph72%30.07 "HgN/A
2:00 AM52 °FPassing clouds.12 mph77%30.07 "HgN/A
1:30 AM54 °FPassing clouds.21 mph72%30.07 "HgN/A
1:00 AM54 °FPassing clouds.16 mph72%30.07 "HgN/A
12:30 AM54 °FPassing clouds.14 mph72%30.07 "HgN/A
12:00 AM54 °FPassing clouds.5 mph77%30.07 "HgN/A
11:30 PM
Sun, May 1
54 °FPassing clouds.7 mph77%30.07 "HgN/A
11:00 PM54 °FPassing clouds.9 mph77%30.07 "HgN/A
10:30 PM55 °FPassing clouds.12 mph72%30.07 "HgN/A
10:00 PM55 °FPassing clouds.16 mph72%30.04 "HgN/A
9:30 PM57 °FScattered clouds.18 mph67%30.04 "HgN/A
9:00 PM61 °FBroken clouds.9 mph52%30.01 "HgN/A
8:30 PM64 °FBroken clouds.12 mph37%30.01 "HgN/A
8:00 PM66 °FPartly sunny.12 mph32%29.98 "HgN/A
7:30 PM66 °FPartly sunny.21 mph32%29.98 "HgN/A
7:00 PM68 °FPartly sunny.18 mph26%29.98 "HgN/A
6:30 PM68 °FPartly sunny.18 mph26%29.98 "HgN/A
6:00 PM68 °FPartly sunny.16 mph30%29.98 "HgN/A
5:30 PM68 °FPartly sunny.16 mph28%29.98 "HgN/A
5:00 PM70 °FPartly sunny.16 mph27%29.98 "HgN/A
4:30 PM72 °FPartly sunny.21 mph27%29.98 "HgN/A
4:00 PM72 °FPartly sunny.9 mph23%29.98 "HgN/A
3:30 PM72 °FPartly sunny.18 mph23%29.98 "HgN/A
3:00 PM70 °FPartly sunny.18 mph25%30.01 "HgN/A
2:30 PM70 °FScattered clouds.16 mph25%30.01 "HgN/A
2:00 PM70 °FScattered clouds.14 mph29%30.01 "HgN/A
1:30 PM68 °FScattered clouds.16 mph28%30.01 "HgN/A
1:00 PM66 °FScattered clouds.12 mph40%30.04 "HgN/A
12:30 PM66 °FScattered clouds.9 mph40%30.04 "HgN/A
12:00 PM66 °FScattered clouds.5 mph40%30.04 "HgN/A
11:30 AM66 °FScattered clouds.5 mph40%30.04 "HgN/A
11:00 AM66 °FPassing clouds.9 mph43%30.04 "HgN/A
10:30 AM63 °FPassing clouds.No wind45%30.04 "HgN/A
10:00 AM63 °FPassing clouds.5 mph49%30.04 "HgN/A
9:30 AM61 °FPassing clouds.5 mph52%30.04 "HgN/A
9:00 AM59 °FPassing clouds.2 mph63%30.04 "HgN/A
8:30 AM55 °FScattered clouds.5 mph72%30.04 "HgN/A
Weather by CustomWeather, © 2016

See weather overviewHow to use our weather pages